Location: Pasadena, ca
(34.1243°N, 118.1037°W)
Time: 20:35:39
(UTC-07:00)

OTV 5 (USA 277) - Pass Details

Date: 08 October 2017
Orbit: 404 x 417 km, 43.0° (Epoch: 07 September)

Event Time Altitude Azimuth Distance (km) Brightness Sun altitude
Rises 19:52:53 0° 241° (WSW) 2,344 ? -18.6°
Reaches altitude 10° 19:54:59 10° 242° (WSW) 1,483 ? -19.1°
Maximum altitude 19:58:21 85° 332° (NNW) 420 ? -19.8°
Enters shadow 19:58:29 80° 29° (NNE) 424 ? -19.8°
